Simultaneous Nadir Overpasses (SNOs) Predictions

Prediction of SNOs between GOES-14 and NPP Satellite Orbit:

Table of predicted SNOs for the next 14.0 days since TLE Epoch: 5/8/2021
Index Date Time (GOES-14) GOES-14 Lat,Lon NPP Lat,Lon Distance(km) Time Diff (sec)
1 05/08/2021 08:35:41 0.14,-104.19 0.97,-107.94 426.93 80
2 05/09/2021 08:19:37 0.14,-104.20 -0.00,-103.40 89.89 80
3 05/11/2021 20:20:12 -0.14,-104.32 -0.12,-104.19 14.33 80
4 05/14/2021 08:23:17 0.13,-104.18 0.30,-104.93 85.95 80
5 05/15/2021 08:07:13 0.14,-104.18 -0.73,-100.41 430.59 80
6 05/16/2021 20:29:11 -0.12,-104.32 -0.42,-105.73 160.05 80
7 05/17/2021 20:07:47 -0.13,-104.31 0.56,-101.19 355.36 80
8 05/19/2021 08:29:35 0.12,-104.16 0.66,-106.45 262.68 80
9 05/20/2021 08:13:32 0.13,-104.16 -0.37,-101.93 253.89 80
10 05/21/2021 20:35:30 -0.11,-104.31 -0.77,-107.25 334.60 80
